600 AM CST FRI JAN 22 2021

MSZ080>082-221300-
COASTAL MISSISSIPPI
  
CITY           SKY/WX    TMP DP  RH WIND       PRES   REMARKS
BILOXI         NOT AVBL                                               
PASCAGOULA     RAIN      62  61  96 CALM      29.92R                  
6HR MIN TEMP:  62; 6HR MAX TEMP:  65; 6HR PCP:  0.07;                

GULFPORT       LGT RAIN  62  60  93 NE5       29.92R FOG              
6HR MIN TEMP:  62; 6HR MAX TEMP:  64; 6HR PCP:  0.04;